Regional Weather Roundup
Issued by NWS Kansas City/Pleasant Hill, MO

Home | Current Version | Previous Version | Text Only | Print | Product List | Glossary On
Versions: 1 2 3 4 5 6 7 8 9 10 11 12 13 14 15 16 17 18 19 20 21 22 23 24 25 26 27 28 29 30 31 32 33 34 35 36 37 38 39 40 41 42 43 44 45 46 47 48 49 50
388
ASUS43 KEAX 221710
RWREAX

WEATHER ROUNDUP FOR EASTERN KANSAS AND NORTHWEST MISSOURI
NATIONAL WEATHER SERVICE KANSAS CITY/PLEASANT HILL MO
1200 PM CDT SAT JUL 22 2017

KSZ040-057-103>105-MOZ028-029-037-043-221800-
...KANSAS CITY METROPOLITAN AREA...

CITY           SKY/WX    TMP DP  RH WIND       PRES   REMARKS
K.C. INTL      MOSUNNY   92  75  57 SW12      29.83S HX 103
K.C. DOWNTOWN  SUNNY     93  74  53 SW10      29.81F HX 103
LEES SUMMIT    SUNNY     92  73  53 SW18      29.85R HX 100
OLATHE - IXD   SUNNY     93  72  50 SW14      29.85F HX 101
OLATHE - OJC   SUNNY     90  74  59 SW9       29.85F HX  99
LAWRENCE       SUNNY     95  72  47 SW12      29.82F HX 103

$$

MOZ001>008-011>017-020>025-030>033-038>040-044>046-053-054-221800-
...NORTHERN AND CENTRAL MISSOURI...

CITY           SKY/WX    TMP DP  RH WIND       PRES   REMARKS
ST. JOSEPH     SUNNY     91  76  61 SW8       29.80S HX 103
MOSBY          SUNNY     91  70  49 W8        29.82S HX  97
WARRENSBURG    SUNNY     91  70  49 SW13      29.84S HX  97
WHITEMAN AFB   MOSUNNY   95  72  47 W14       29.83S HX 102
CLINTON        SUNNY     91  75  59 SW10      29.86F HX 102
SEDALIA        SUNNY     94  76  55 SW17G23   29.87S HX 106
WARSAW         NOT AVBL
CHILLICOTHE      N/A     91  77  63 VRB5      29.81S HX 104
KIRKSVILLE     MOSUNNY   90  76  63 SW13G20   29.83R HX 101

$$

MOZ041-047>049-056>058-063>065-088>090-097-221800-
...EASTERN AND SOUTHERN MISSOURI...

CITY           SKY/WX    TMP DP  RH WIND       PRES   REMARKS
ST. LOUIS INTL MOSUNNY   93  71  48 SE14      29.90F HX 100
SPIRIT OF STL  SUNNY     92  76  59 E6        29.87F HX 104
COLUMBIA       SUNNY     96  72  45 SW15      29.87F HX 104
JEFFERSON CITY SUNNY     94  76  55 S15       29.85F HX 106
ROLLA          MOSUNNY   90  75  61 S8        29.93R HX 100
OSAGE BEACH    MOSUNNY   96  72  45 SW13G21   29.89F HX 104
SPRINGFIELD    SUNNY     92  72  51 SW13      29.95F HX  99
BRANSON        SUNNY     91  72  52 W6        29.99S HX  98
JOPLIN         SUNNY     95  74  50 SW16      29.93F HX 105
WEST PLAINS    SUNNY     93  71  48 SW9       29.98F HX 100

$$

IAZ060-094-KSZ022-034>040-054-083-096-NEZ052-066-093-221800-
...KANSAS...SOUTHEAST NEBRASKA AND IOWA...

CITY           SKY/WX    TMP DP  RH WIND       PRES   REMARKS
TOPEKA         SUNNY     94  72  48 S7        29.82F HX 102
MANHATTAN      SUNNY     97  69  40 VRB5      29.83S HX 103
EMPORIA        SUNNY     95  70  44 SW10      29.87S HX 101
CHANUTE        SUNNY     98  70  40 SW16G24   29.88F HX 105
WICHITA        MOSUNNY   98  68  37 S13       29.87F HX 103
OMAHA          PTSUNNY   85  76  74 N10       29.85S HX  94
LINCOLN        MOSUNNY   86  78  77 N12       29.88R HX  98
LAMONI         SUNNY     90  76  63 W6        29.82R HX 101
DES MOINES     PTSUNNY   88  76  67 N8        29.81R HX  99

$$





USA.gov is the U.S. government's official web portal to all federal, state and local government web resources and services.